Location: Brachbach
(49.1847°N, 9.7240°E)
Time: 07:07:59
(UTC+00:00)

FO-29 - Pass Details

Date: 23 March 2026
Orbit: 801 x 1320 km, 98.5° (Epoch: 17 April)

Event Time Altitude Azimuth Distance (km) Brightness Sun altitude
Rises 04:24:46 0° 96° (E) 3,726 14.1 -9.4°
Reaches altitude 10° 04:28:26 10° 74° (ENE) 2,885 13.7 -8.9°
Maximum altitude 04:31:42 14° 43° (NE) 2,654 12.7 -8.3°
Drops below altitude 10° 04:35:09 10° 14° (NNE) 3,074 12.4 -7.8°
Sets 04:39:16 0° 352° (N) 4,140 12.8 -7.1°
